カタログに戻る

STARLINK-36433

運用中通信VLEO
NORAD 67501·PAYLOAD·🇺🇸 United States

打ち上げ Jan 18, 2026 から Cape Canaveral Space Force Station

Loading…

次のパス (今後24時間)

TLE

最新Source: CelesTrak SupGP

元期: Sep 14, 2026, 23:16 UTC

1 67501C 26012J   26257.96993056 -.00003411  00000+0 -12356-3 0  2576
2 67501  43.0024 325.4316 0001660 265.9941 323.4898 15.27578062    18

AllMySatでSTARLINK-36433をリアルタイム追跡

Download on the App Store